Wind_Speed
12 4 6 9 16 18 22 12 14 13 13 13 10 4 4 6 6 4 13 19 16 15 16 16 15 14 13 12 9 7 8 8 9 8 7 7 7 7 7 7 7 8 8 8 9 9 7 5 4
8 12 17 23 20 22 18 9 10 11 12 11 7 1 9 9 5 7 14 19 13 14 17 15 16 13 12 10 8 7 7 7 7 7 7 7 7 6 6 6 7 7 7 8 7 7 6 5 4
11 15 19 16 22 18 16 9 6 5 9 7 11 6 6 8 9 7 12 17 19 16 15 12 16 15 12 9 8 7 6 6 6 6 7 8 8 8 7 6 5 7 6 7 6 5 5 5 7
7 4 13 10 7 4 1 5 10 8 1 6 6 4 8 11 9 5 10 16 16 16 14 14 16 14 12 9 8 7 6 5 6 6 6 7 8 8 9 8 7 6 7 6 6 5 5 6 7
10 9 12 16 8 3 6 7 6 4 2 0 2 8 9 10 9 3 6 9 12 11 13 15 16 15 12 9 7 7 7 6 6 5 5 6 8 8 8 9 8 8 7 7 6 6 5 6 9
5 3 13 12 5 3 7 3 8 9 9 7 4 12 9 8 7 4 6 6 7 9 14 15 17 15 12 9 8 8 8 6 5 3 3 4 5 7 7 8 8 7 8 7 6 5 4 4 9
4 19 12 11 12 11 6 5 7 8 8 4 5 11 9 8 7 4 6 6 6 10 17 16 17 16 15 12 10 9 8 7 6 5 4 4 4 5 7 8 8 9 8 7 6 5 4 3 6
10 13 8 11 9 6 6 5 7 3 3 4 6 4 7 11 10 6 4 6 9 10 14 14 15 16 16 15 14 11 10 9 9 8 8 7 5 3 3 5 6 6 8 7 7 6 6 5 4
9 11 9 9 7 10 8 2 8 6 3 4 2 2 7 11 12 8 4 4 7 11 13 15 17 17 17 17 16 15 14 12 11 12 11 9 7 6 5 2 6 7 7 7 7 7 7 7 5
10 4 9 11 15 17 10 8 10 12 9 4 4 3 3 8 12 10 6 4 2 5 7 13 15 19 19 18 18 18 16 15 15 15 14 13 11 11 6 1 3 9 9 9 10 8 6 8 7
6 2 8 10 20 23 23 18 17 14 8 7 6 5 4 8 11 10 5 3 2 3 4 8 12 16 18 19 18 19 17 17 18 18 17 16 14 16 14 5 4 6 10 10 10 11 9 10 8
8 4 10 14 12 15 11 15 14 10 4 5 1 3 3 7 9 8 5 3 3 2 4 6 9 13 16 19 18 19 19 19 18 18 18 17 16 18 20 15 9 8 11 10 11 12 11 10 11
10 10 9 10 11 12 9 4 6 9 8 8 7 11 7 3 5 5 5 5 4 4 3 1 2 5 10 14 17 17 17 16 18 20 18 17 17 19 18 19 15 14 12 14 13 13 12 12 11
15 13 9 8 11 12 9 8 5 11 11 12 9 12 4 9 12 7 8 8 6 5 5 3 5 6 7 8 10 13 13 16 15 18 20 19 19 21 23 23 21 18 17 15 17 17 14 15 13
15 15 14 12 12 15 15 8 7 10 14 13 10 9 2 5 34 13 10 8 5 3 4 3 3 5 6 7 7 7 9 9 10 12 16 19 20 21 24 27 22 20 19 17 17 18 15 15 14
11 12 11 2 11 16 18 6 8 10 15 13 13 14 7 10 18 15 12 11 10 6 4 5 4 3 5 5 6 7 8 10 11 13 13 15 17 21 20 20 22 24 24 19 17 19 18 17 16
13 11 11 11 18 16 2 6 8 3 13 16 13 15 12 10 14 25 18 16 15 15 11 6 5 4 3 6 8 9 9 11 13 15 16 18 19 18 19 20 22 22 24 23 19 21 20 19 19
10 7 8 11 15 20 17 5 5 7 15 19 15 15 13 11 15 22 25 17 19 21 18 13 9 9 7 8 10 11 13 15 16 19 20 21 21 21 20 21 21 20 23 26 24 20 21 22 20
9 9 13 5 15 14 14 12 11 12 17 21 25 14 17 13 16 26 23 26 39 30 21 14 12 14 11 11 12 14 17 19 18 23 24 24 24 24 24 22 22 23 22 23 25 22 22 25 20
8 11 9 13 14 15 16 13 12 8 11 17 20 11 17 11 12 20 18 15 15 24 21 16 10 10 10 10 13 19 17 20 22 26 26 27 26 25 26 26 24 23 22 24 27 27 24 25 25
8 14 12 15 16 18 15 9 7 5 7 15 18 19 17 14 8 11 13 15 5 24 15 21 13 8 7 9 13 16 18 18 20 24 24 26 24 26 28 28 28 27 25 25 27 28 26 24 26
11 5 11 15 15 11 11 4 6 12 12 10 17 21 12 5 5 10 4 9 8 13 28 15 7 6 8 11 15 18 22 20 21 19 19 20 24 23 22 26 29 30 30 26 28 29 28 26 24
15 12 14 12 12 10 10 6 6 13 9 6 8 15 8 4 2 3 2 5 5 5 5 4 5 4 8 12 15 19 22 21 16 15 12 14 16 17 20 22 26 26 27 25 25 31 30 28 28
12 18 17 15 8 5 9 6 9 9 7 8 9 8 8 3 2 2 3 2 6 5 4 6 4 4 7 11 14 18 20 13 11 9 9 12 14 14 15 16 19 19 20 22 22 28 31 27 26
13 12 5 3 2 6 7 6 5 7 7 6 10 5 7 5 3 4 3 3 2 3 5 7 2 4 7 11 12 16 12 12 12 12 9 10 9 10 8 13 18 17 17 18 22 26 30 28 26
13 14 10 6 4 4 7 4 6 8 13 8 7 12 9 7 3 4 5 3 1 1 5 3 2 4 6 10 11 12 11 13 15 13 10 9 6 3 3 10 14 14 16 16 21 26 28 28 26
6 15 15 12 1 1 6 9 4 8 16 10 14 18 5 12 1 4 7 4 5 1 2 6 5 5 5 8 8 10 10 14 11 13 13 9 7 3 1 5 9 11 13 13 18 21 23 25 26
11 17 8 8 4 3 4 4 9 13 10 11 17 18 10 8 23 13 5 6 2 2 3 4 6 4 3 5 7 10 11 12 13 13 13 13 11 7 2 2 5 7 9 10 15 19 22 23 24
11 12 14 10 5 7 3 6 6 8 14 16 17 21 15 10 23 18 8 9 7 5 6 5 3 6 6 4 7 9 11 13 14 13 13 12 13 12 6 3 2 6 8 9 11 16 20 20 22
17 16 14 17 7 6 5 11 11 13 15 19 17 12 10 2 11 17 13 3 8 6 5 5 1 2 8 6 7 7 9 11 13 14 13 13 13 14 7 6 4 1 1 8 10 11 14 17 18
Wind_Direction
77 52 91 139 90 94 67 75 107 92 71 82 144 136 192 206 202 238 174 183 163 174 168 168 169 169 166 167 171 173 177 180 170 166 151 140 135 135 141 132 129 128 128 144 148 151 148 146 165
58 72 89 90 110 90 57 74 75 86 72 31 24 109 119 109 147 231 188 167 158 168 165 169 171 168 160 157 156 159 165 172 171 175 166 151 141 145 144 140 137 132 131 139 158 156 157 168 145
62 95 127 91 104 96 88 38 359 90 48 40 354 13 74 71 76 161 151 163 156 161 170 170 173 172 170 158 160 165 160 165 173 184 176 169 159 153 157 154 161 144 139 143 152 163 144 155 144
45 80 130 153 122 71 16 75 58 207 95 5 7 26 36 71 64 123 157 164 157 164 174 178 178 177 181 176 168 172 181 179 181 181 187 187 181 171 167 159 153 154 147 155 150 165 170 154 152
76 122 141 137 143 163 286 301 329 119 215 246 55 29 55 45 63 105 149 145 170 178 182 182 179 184 186 185 177 183 187 181 175 170 171 188 189 188 176 164 158 158 150 156 154 160 180 168 162
315 127 145 154 99 294 5 87 110 94 91 91 44 5 53 52 59 71 157 148 169 193 201 188 184 187 193 195 197 199 200 194 192 201 193 182 188 195 188 175 165 167 166 163 159 170 168 198 169
81 152 124 122 112 70 69 121 80 88 71 91 21 6 34 63 74 67 114 155 156 171 190 196 193 193 202 208 215 221 219 215 225 239 237 231 208 201 197 192 181 176 181 176 174 167 195 192 192
107 116 106 115 118 42 33 164 157 81 120 69 20 27 37 49 55 53 103 167 191 186 189 197 202 209 216 222 229 236 237 236 239 244 252 245 237 205 212 221 201 200 200 189 191 178 185 195 202
168 108 72 65 46 340 325 226 243 318 295 316 340 355 39 48 49 44 40 141 179 203 208 211 215 221 223 228 234 238 240 245 253 255 254 248 223 189 166 235 240 216 212 220 207 199 189 209 203
152 92 16 354 332 329 339 303 264 285 287 266 329 308 78 67 53 52 42 35 141 203 221 224 226 230 233 235 238 240 242 246 249 249 249 242 226 199 186 207 314 242 223 219 222 212 203 217 210
163 55 318 348 330 316 309 303 282 271 302 287 316 4 40 74 60 55 74 111 146 211 236 240 233 231 232 234 238 243 245 249 250 249 248 246 235 228 232 253 292 249 232 221 223 225 203 224 223
217 248 323 324 324 328 318 299 266 282 274 266 204 137 75 86 68 57 57 104 144 175 226 243 244 234 233 236 239 245 248 248 247 243 240 245 239 233 240 242 283 272 246 233 232 231 225 217 230
225 260 272 305 319 325 331 345 249 250 240 225 188 174 158 143 124 126 133 126 143 159 169 238 222 219 229 235 238 240 240 240 247 246 248 247 246 243 244 242 269 269 259 241 233 235 232 226 227
225 234 248 288 293 295 323 324 294 225 209 220 210 187 124 331 304 172 148 149 147 163 149 147 191 201 217 219 230 237 241 247 257 245 245 241 238 243 244 249 253 257 260 252 237 236 233 229 224
227 241 247 262 273 284 287 301 244 256 240 230 231 175 28 326 342 225 169 163 168 205 182 158 166 185 203 214 213 220 226 242 239 235 243 241 239 254 259 247 246 244 250 247 240 237 230 230 226
223 242 261 25 292 313 263 209 258 271 270 260 236 190 191 339 335 237 218 187 176 215 232 222 199 200 204 223 221 220 231 241 246 250 251 248 248 252 261 252 250 238 241 240 231 236 235 227 224
230 246 253 329 332 0 354 219 258 261 298 258 242 222 251 299 168 206 227 219 208 204 222 246 249 265 269 264 257 259 254 257 260 254 255 255 252 254 258 255 252 246 234 229 226 228 238 231 222
200 242 282 313 331 331 331 261 207 260 286 258 245 262 258 290 233 217 199 221 246 218 213 228 256 272 272 271 273 275 275 273 273 271 266 259 261 258 261 256 251 252 240 230 224 230 235 225 222
241 265 297 313 331 332 324 299 298 291 310 253 242 266 256 283 234 215 217 256 288 211 213 215 251 265 274 276 280 281 280 278 277 277 274 268 263 259 257 253 247 248 246 234 226 225 231 224 226
246 283 298 313 336 336 326 292 305 327 313 282 263 250 278 306 275 228 230 255 318 189 203 202 228 255 259 274 284 288 292 289 292 283 272 269 262 263 257 250 243 241 242 236 229 225 228 229 226
253 274 286 300 321 330 315 290 297 337 340 249 232 242 269 301 265 259 274 245 234 194 187 184 198 239 250 288 298 296 299 296 289 278 276 270 260 268 260 247 238 241 240 240 230 227 227 231 229
292 290 294 298 301 316 321 276 292 304 323 259 228 241 277 308 268 309 293 243 245 230 217 156 173 237 298 321 323 323 318 316 302 288 274 267 266 260 257 251 246 246 239 236 231 228 227 225 228
284 300 290 297 292 289 287 280 322 310 284 287 236 230 278 269 106 111 155 260 261 228 198 164 198 252 317 332 328 334 330 324 306 292 283 275 266 258 260 260 246 238 224 228 232 226 224 226 227
273 295 281 278 284 267 297 314 341 336 298 264 232 217 225 202 80 155 181 225 228 224 177 188 200 318 326 333 337 347 341 351 351 341 315 296 271 264 268 249 216 213 217 228 232 224 222 224 228
271 278 270 317 324 226 306 302 299 305 250 260 224 248 184 162 121 333 273 308 190 192 214 183 154 318 333 340 350 360 1 357 7 355 335 319 302 269 258 211 206 219 235 236 231 223 219 222 226
280 267 231 193 188 238 304 264 292 298 231 247 236 214 219 192 159 253 268 274 184 178 179 146 279 316 328 339 360 9 11 11 30 20 9 358 351 291 225 207 209 225 234 241 231 217 215 220 224
267 291 269 245 227 254 261 277 290 229 231 250 211 198 230 241 202 311 262 225 227 344 205 223 313 305 322 328 4 10 18 25 32 15 10 13 16 21 215 208 220 225 231 239 224 213 213 219 225
293 285 229 217 130 226 230 230 285 224 208 196 210 207 303 103 201 230 245 196 186 313 264 259 297 253 274 311 3 10 4 358 2 8 11 6 357 7 356 250 226 229 229 225 217 214 217 220 227
280 295 226 243 206 165 191 246 281 235 226 237 227 232 291 71 180 200 205 211 220 273 292 256 279 255 239 308 347 359 2 359 353 352 2 10 12 12 13 22 237 230 220 223 218 218 222 227 229
276 289 259 238 239 218 238 263 251 257 230 236 228 253 287 230 169 189 198 207 244 286 279 213 0 152 200 268 311 333 347 350 350 355 1 6 20 25 32 38 48 40 226 207 208 218 224 227 236
Height
3168 3168 3167 3166 3171 3172 3171 3172 3169 3169 3166 3165 3165 3165 3164 3162 3162 3165 3162 3163 3164 3167 3169 3171 3174 3176 3178 3180 3182 3183 3185 3187 3188 3188 3189 3189 3189 3189 3190 3190 3190 3191 3191 3193 3193 3194 3194 3195 3196
3169 3170 3170 3168 3173 3175 3177 3175 3172 3170 3168 3169 3167 3166 3165 3164 3162 3161 3161 3162 3166 3169 3171 3173 3176 3178 3180 3181 3182 3184 3186 3187 3187 3188 3188 3189 3190 3190 3191 3192 3192 3192 3192 3193 3194 3194 3194 3195 3196
3171 3172 3174 3174 3176 3177 3177 3175 3171 3169 3169 3169 3169 3166 3165 3164 3163 3163 3163 3165 3167 3170 3174 3175 3177 3179 3181 3182 3184 3185 3186 3187 3187 3188 3189 3189 3189 3190 3191 3192 3193 3193 3193 3193 3194 3195 3195 3195 3195
3172 3173 3175 3176 3176 3176 3176 3175 3171 3172 3172 3171 3171 3169 3168 3167 3165 3166 3166 3167 3168 3171 3175 3177 3178 3180 3183 3184 3185 3187 3188 3188 3189 3189 3189 3190 3190 3190 3191 3192 3193 3193 3193 3194 3194 3195 3195 3194 3196
3172 3172 3173 3175 3176 3176 3175 3174 3173 3173 3172 3172 3172 3170 3168 3167 3167 3168 3169 3169 3171 3172 3175 3177 3179 3182 3184 3185 3187 3188 3188 3189 3189 3190 3190 3191 3191 3191 3191 3191 3193 3194 3194 3194 3195 3195 3195 3195 3196
3174 3173 3173 3175 3178 3177 3175 3175 3173 3174 3174 3173 3174 3172 3172 3170 3170 3170 3170 3172 3172 3174 3176 3178 3180 3182 3184 3186 3187 3188 3189 3189 3189 3190 3190 3190 3191 3192 3192 3192 3192 3193 3194 3194 3195 3195 3195 3196 3196
3171 3172 3175 3177 3178 3178 3177 3177 3177 3176 3175 3175 3175 3174 3175 3173 3171 3171 3171 3172 3174 3174 3177 3179 3180 3182 3184 3185 3187 3188 3189 3189 3189 3190 3190 3191 3191 3192 3192 3192 3192 3193 3194 3194 3194 3194 3196 3197 3198
3175 3174 3176 3178 3179 3179 3178 3178 3178 3177 3176 3174 3175 3173 3173 3172 3171 3171 3172 3173 3175 3178 3179 3180 3181 3183 3184 3185 3186 3188 3189 3190 3190 3190 3191 3191 3192 3192 3193 3193 3193 3194 3194 3194 3194 3194 3196 3195 3198
3176 3176 3176 3178 3179 3179 3178 3177 3177 3177 3175 3174 3174 3174 3173 3172 3173 3173 3173 3174 3175 3177 3179 3178 3181 3183 3183 3184 3185 3187 3188 3189 3190 3190 3191 3191 3191 3191 3192 3192 3193 3193 3194 3195 3194 3194 3195 3196 3197
3176 3175 3175 3177 3176 3176 3177 3177 3177 3177 3175 3174 3175 3175 3174 3172 3172 3173 3175 3175 3175 3177 3179 3179 3180 3181 3182 3183 3184 3185 3186 3187 3188 3189 3189 3189 3190 3189 3189 3190 3191 3191 3193 3193 3194 3194 3195 3195 3196
3176 3176 3175 3174 3174 3174 3175 3175 3175 3175 3175 3178 3177 3175 3175 3176 3175 3175 3175 3175 3176 3176 3176 3177 3177 3177 3180 3181 3182 3182 3184 3185 3186 3187 3187 3187 3189 3189 3188 3188 3190 3190 3191 3192 3193 3193 3193 3193 3194
3176 3176 3176 3173 3172 3172 3172 3172 3174 3175 3177 3175 3176 3177 3176 3176 3175 3176 3177 3176 3176 3177 3177 3176 3175 3175 3178 3179 3180 3180 3180 3182 3183 3183 3184 3184 3185 3186 3186 3187 3188 3189 3190 3190 3191 3192 3193 3193 3194
3175 3175 3175 3175 3173 3173 3173 3173 3173 3174 3175 3175 3175 3173 3176 3176 3176 3175 3175 3176 3177 3177 3177 3176 3175 3174 3174 3175 3176 3176 3177 3178 3179 3180 3181 3182 3183 3183 3183 3184 3186 3187 3187 3188 3188 3190 3191 3192 3192
3173 3173 3173 3174 3173 3173 3173 3173 3174 3173 3174 3172 3173 3171 3171 3170 3174 3175 3174 3176 3176 3178 3176 3175 3175 3174 3173 3172 3173 3174 3175 3175 3175 3175 3177 3177 3178 3179 3179 3179 3181 3183 3184 3185 3185 3187 3189 3190 3190
3173 3172 3171 3173 3172 3172 3171 3172 3172 3173 3171 3172 3171 3173 3174 3175 3173 3173 3175 3175 3178 3178 3178 3177 3175 3175 3175 3174 3173 3173 3172 3172 3171 3171 3171 3173 3174 3174 3174 3174 3175 3178 3180 3181 3182 3184 3185 3187 3189
3172 3172 3171 3172 3171 3169 3168 3169 3170 3169 3169 3170 3170 3173 3174 3174 3172 3173 3173 3173 3173 3178 3179 3179 3176 3175 3175 3175 3173 3171 3170 3170 3169 3168 3168 3168 3168 3169 3169 3169 3170 3171 3174 3177 3179 3181 3183 3184 3186
3171 3169 3169 3168 3167 3167 3166 3166 3167 3168 3167 3166 3168 3169 3169 3170 3167 3163 3170 3170 3171 3170 3177 3178 3177 3175 3173 3172 3171 3170 3168 3167 3166 3165 3165 3164 3164 3164 3164 3164 3165 3166 3168 3172 3175 3177 3180 3181 3183
3168 3167 3167 3167 3168 3166 3166 3165 3166 3166 3166 3166 3166 3166 3168 3165 3162 3161 3162 3166 3171 3168 3171 3174 3176 3175 3173 3172 3169 3168 3166 3164 3162 3161 3160 3159 3159 3158 3160 3160 3160 3161 3164 3166 3169 3172 3175 3178 3180
3167 3166 3165 3166 3167 3166 3167 3162 3163 3164 3163 3163 3163 3166 3166 3164 3161 3160 3164 3164 3153 3162 3169 3168 3172 3171 3171 3171 3169 3167 3165 3160 3157 3156 3154 3153 3153 3153 3154 3154 3156 3157 3159 3162 3165 3167 3170 3174 3176
3166 3166 3164 3163 3164 3164 3165 3162 3161 3161 3161 3160 3162 3164 3164 3164 3162 3162 3164 3162 3162 3158 3163 3162 3167 3168 3169 3169 3168 3166 3160 3155 3151 3149 3147 3147 3146 3146 3147 3148 3150 3151 3154 3156 3159 3162 3165 3169 3172
3163 3164 3164 3165 3163 3162 3160 3159 3159 3160 3160 3160 3162 3161 3162 3163 3163 3162 3163 3162 3162 3159 3159 3158 3162 3165 3167 3167 3164 3161 3157 3151 3147 3143 3142 3141 3139 3140 3140 3141 3142 3146 3148 3151 3153 3157 3161 3164 3168
3161 3161 3162 3162 3163 3161 3159 3159 3158 3155 3158 3158 3158 3158 3162 3161 3159 3160 3159 3159 3161 3161 3148 3157 3161 3164 3164 3162 3159 3155 3150 3144 3141 3137 3135 3134 3134 3133 3134 3135 3136 3138 3142 3145 3149 3153 3156 3159 3162
3158 3159 3159 3159 3159 3159 3159 3158 3155 3155 3155 3156 3157 3158 3159 3160 3159 3159 3159 3157 3158 3158 3157 3157 3161 3164 3163 3160 3157 3151 3144 3140 3137 3133 3130 3130 3129 3129 3129 3129 3129 3131 3135 3140 3143 3147 3152 3155 3159
3155 3155 3155 3155 3156 3156 3157 3156 3155 3155 3156 3155 3155 3157 3158 3159 3159 3160 3160 3158 3159 3157 3157 3160 3162 3162 3162 3159 3155 3149 3143 3139 3135 3131 3129 3128 3125 3125 3124 3122 3125 3128 3132 3136 3139 3142 3146 3151 3154
3153 3154 3153 3155 3157 3156 3155 3154 3154 3155 3155 3154 3155 3158 3159 3160 3159 3161 3161 3160 3160 3159 3159 3160 3160 3162 3161 3157 3154 3149 3144 3139 3134 3132 3130 3127 3123 3122 3121 3121 3124 3127 3130 3132 3134 3137 3142 3146 3150
3150 3151 3151 3157 3159 3154 3153 3152 3152 3154 3152 3152 3155 3156 3157 3160 3159 3160 3160 3161 3161 3160 3159 3158 3159 3158 3158 3156 3153 3150 3146 3141 3135 3134 3132 3128 3125 3122 3120 3120 3122 3125 3127 3128 3129 3132 3137 3142 3147
3146 3146 3148 3149 3152 3153 3152 3151 3153 3151 3151 3151 3151 3152 3156 3161 3162 3159 3158 3158 3159 3157 3158 3159 3158 3156 3156 3156 3153 3150 3147 3144 3139 3136 3133 3131 3127 3124 3121 3120 3121 3122 3124 3125 3127 3131 3135 3139 3143
3143 3142 3144 3145 3152 3153 3148 3148 3149 3148 3150 3150 3150 3149 3153 3149 3152 3158 3158 3155 3157 3156 3156 3156 3156 3155 3155 3155 3153 3150 3147 3144 3142 3139 3135 3132 3128 3125 3123 3122 3121 3122 3123 3124 3125 3129 3132 3136 3139
3140 3138 3140 3143 3144 3144 3149 3145 3145 3144 3145 3145 3147 3148 3146 3139 3142 3152 3154 3154 3154 3154 3155 3153 3152 3153 3153 3154 3152 3150 3147 3145 3143 3139 3136 3133 3130 3126 3123 3122 3122 3122 3122 3123 3125 3127 3131 3133 3135
3136 3136 3136 3139 3141 3140 3140 3140 3140 3140 3142 3143 3145 3145 3143 3142 3142 3148 3151 3151 3153 3152 3152 3152 3151 3150 3151 3152 3152 3150 3147 3145 3143 3141 3137 3134 3131 3129 3126 3123 3123 3123 3122 3121 3123 3126 3129 3131 3133